When you browse on this site, cookies collect data to enhance your experience and personalize the content and advertising you see.
Visit our Privacy Policy to learn more. By continuing to use the site, you agree to this use of cookies and data.
  • In Norway
  • List of Countries
  • For 7 days
  • Water Temperature
  • Satellite Maps
  • Weather Map
  • Weather Widgets
  • user-avatar
    Login

    Hourly Weather Zarka

    Today, 22 March, Friday

    Time Temperature Precipitation Wind Pressure Humidity
    00:00 +15°C° 0 mm 2 mps 704 mmHg 70%
    01:00 +14°C° 0 mm 2 mps 704 mmHg 71%
    02:00 +13°C° 0 mm 3 mps 704 mmHg 72%
    03:00 +13°C° 0 mm 2 mps 704 mmHg 75%
    04:00 +13°C° 0 mm 2 mps 704 mmHg 77%
    05:00 +12°C° 0 mm 2 mps 704 mmHg 80%
    06:00 +13°C° 0 mm 2 mps 704 mmHg 76%
    07:00 +14°C° 0 mm 2 mps 705 mmHg 71%
    08:00 +15°C° 0 mm 1 mps 705 mmHg 67%
    09:00 +16°C° 0 mm 1 mps 705 mmHg 60%
    10:00 +18°C° 0 mm 1 mps 705 mmHg 53%
    11:00 +19°C° 0 mm 1 mps 706 mmHg 47%
    12:00 +20°C° 0 mm 1 mps 705 mmHg 44%
    13:00 +20°C° 0 mm 2 mps 705 mmHg 42%
    14:00 +21°C° 0 mm 2 mps 705 mmHg 39%
    15:00 +20°C° 0 mm 3 mps 704 mmHg 43%
    16:00 +20°C° 0 mm 3 mps 704 mmHg 47%
    17:00 +19°C° 0 mm 4 mps 704 mmHg 51%
    18:00 +18°C° 0 mm 4 mps 704 mmHg 60%
    19:00 +17°C° 0 mm 3 mps 704 mmHg 69%
    20:00 +16°C° 0 mm 3 mps 704 mmHg 78%
    21:00 +14°C° 0 mm 3 mps 704 mmHg 80%
    22:00 +15°C° 0 mm 2 mps 704 mmHg 82%
    23:00 +14°C° 0 mm 2 mps 704 mmHg 85%

    Tomorrow, 23 March, Saturday

    Time Temperature Precipitation Wind Pressure Humidity
    00:00 +14°C° 0 mm 2 mps 704 mmHg 85%
    01:00 +14°C° 0 mm 2 mps 704 mmHg 85%
    02:00 +13°C° 0 mm 2 mps 704 mmHg 86%
    03:00 +13°C° 0 mm 2 mps 703 mmHg 85%
    04:00 +12°C° 0 mm 2 mps 703 mmHg 85%
    05:00 +12°C° 0 mm 1 mps 703 mmHg 84%
    06:00 +13°C° 0 mm 1 mps 703 mmHg 77%
    07:00 +14°C° 0 mm 1 mps 703 mmHg 70%
    08:00 +14°C° 0 mm 2 mps 704 mmHg 64%
    09:00 +16°C° 0 mm 2 mps 703 mmHg 57%
    10:00 +17°C° 0 mm 2 mps 703 mmHg 50%
    11:00 +19°C° 0 mm 2 mps 703 mmHg 43%
    12:00 +19°C° 0 mm 3 mps 703 mmHg 40%
    13:00 +20°C° 0 mm 4 mps 703 mmHg 36%
    14:00 +21°C° 0 mm 5 mps 702 mmHg 33%
    15:00 +20°C° 0 mm 5 mps 702 mmHg 36%
    16:00 +19°C° 0 mm 5 mps 702 mmHg 39%
    17:00 +19°C° 0 mm 5 mps 701 mmHg 43%
    18:00 +16°C° 0 mm 5 mps 701 mmHg 47%
    19:00 +15°C° 0 mm 4 mps 701 mmHg 52%
    20:00 +14°C° 0 mm 3 mps 702 mmHg 57%
    21:00 +13°C° 0 mm 3 mps 701 mmHg 57%
    22:00 +14°C° 0 mm 2 mps 701 mmHg 57%
    23:00 +13°C° 0 mm 2 mps 701 mmHg 58%

    Day after tomorrow, 24 March, Sunday

    Time Temperature Precipitation Wind Pressure Humidity
    00:00 +13°C° 0 mm 2 mps 700 mmHg 58%
    01:00 +12°C° 0 mm 1 mps 699 mmHg 57%
    02:00 +12°C° 0 mm 1 mps 699 mmHg 57%
    03:00 +12°C° 0 mm 1 mps 698 mmHg 57%
    04:00 +11°C° 0 mm 1 mps 698 mmHg 56%
    05:00 +11°C° 0 mm 1 mps 698 mmHg 56%
    06:00 +12°C° 0 mm 1 mps 698 mmHg 50%
    07:00 +13°C° 0 mm 2 mps 699 mmHg 43%
    08:00 +15°C° 0 mm 2 mps 699 mmHg 37%
    09:00 +16°C° 0 mm 3 mps 699 mmHg 33%
    10:00 +17°C° 0 mm 3 mps 699 mmHg 29%
    11:00 +19°C° 0 mm 4 mps 699 mmHg 26%
    12:00 +19°C° 0 mm 5 mps 698 mmHg 26%
    13:00 +20°C° 0 mm 6 mps 698 mmHg 26%
    14:00 +20°C° 0 mm 7 mps 697 mmHg 27%
    15:00 +18°C° 0 mm 7 mps 697 mmHg 31%
    16:00 +17°C° 0 mm 7 mps 696 mmHg 36%
    17:00 +16°C° 0 mm 7 mps 696 mmHg 40%
    18:00 +14°C° 0 mm 6 mps 696 mmHg 46%
    19:00 +13°C° 0 mm 5 mps 696 mmHg 51%
    20:00 +12°C° 0 mm 4 mps 697 mmHg 57%
    21:00 +12°C° 0 mm 4 mps 697 mmHg 59%
    22:00 +11°C° 0 mm 4 mps 696 mmHg 62%
    23:00 +11°C° 0 mm 4 mps 696 mmHg 64%

    25 March, Monday

    Time Temperature Precipitation Wind Pressure Humidity
    00:00 +10°C° 0 mm 4 mps 696 mmHg 67%
    01:00 +10°C° 0 mm 4 mps 696 mmHg 69%
    02:00 +8°C° 0 mm 4 mps 696 mmHg 71%
    03:00 +8°C° 0 mm 4 mps 696 mmHg 69%
    04:00 +7°C° 0 mm 4 mps 696 mmHg 66%
    05:00 +7°C° 0 mm 4 mps 696 mmHg 64%
    06:00 +7°C° 0 mm 5 mps 696 mmHg 58%
    07:00 +7°C° 0 mm 6 mps 697 mmHg 53%
    08:00 +8°C° 0 mm 7 mps 697 mmHg 47%
    09:00 +9°C° 0 mm 8 mps 697 mmHg 44%
    10:00 +8°C° 0 mm 9 mps 697 mmHg 42%
    11:00 +9°C° 0 mm 10 mps 697 mmHg 39%
    12:00 +9°C° 0 mm 10 mps 697 mmHg 40%
    13:00 +9°C° 0 mm 11 mps 697 mmHg 41%
    14:00 +9°C° 0 mm 11 mps 697 mmHg 42%
    15:00 +8°C° 0 mm 11 mps 697 mmHg 44%
    16:00 +8°C° 0 mm 10 mps 698 mmHg 46%
    17:00 +7°C° 0 mm 9 mps 698 mmHg 48%
    18:00 +7°C° 0 mm 9 mps 698 mmHg 52%
    19:00 +6°C° 0 mm 8 mps 699 mmHg 56%
    20:00 +6°C° 0 mm 7 mps 699 mmHg 61%
    21:00 +6°C° 0 mm 7 mps 699 mmHg 62%
    22:00 +6°C° 0 mm 7 mps 699 mmHg 64%
    23:00 +5°C° 0 mm 6 mps 699 mmHg 66%

    26 March, Tuesday

    Time Temperature Precipitation Wind Pressure Humidity
    00:00 +5°C° 0 mm 6 mps 699 mmHg 68%
    01:00 +6°C° 0 mm 5 mps 699 mmHg 70%
    02:00 +6°C° 0 mm 5 mps 699 mmHg 72%
    03:00 +6°C° 0 mm 4 mps 700 mmHg 74%
    04:00 +6°C° 0 mm 4 mps 700 mmHg 77%
    05:00 +5°C° 0 mm 4 mps 700 mmHg 79%
    06:00 +7°C° 0 mm 4 mps 700 mmHg 76%
    07:00 +8°C° 0 mm 5 mps 701 mmHg 72%
    08:00 +9°C° 0 mm 5 mps 701 mmHg 69%
    09:00 +10°C° 0 mm 5 mps 701 mmHg 62%
    10:00 +12°C° 0 mm 5 mps 702 mmHg 56%
    11:00 +13°C° 0 mm 5 mps 702 mmHg 50%
    12:00 +14°C° 0 mm 5 mps 702 mmHg 47%
    13:00 +15°C° 0 mm 6 mps 701 mmHg 45%
    14:00 +15°C° 0 mm 6 mps 701 mmHg 42%
    15:00 +15°C° 0 mm 5 mps 701 mmHg 46%
    16:00 +14°C° 0 mm 5 mps 701 mmHg 49%
    17:00 +14°C° 0 mm 4 mps 701 mmHg 53%
    18:00 +13°C° 0 mm 4 mps 702 mmHg 58%
    19:00 +12°C° 0 mm 3 mps 702 mmHg 63%
    20:00 +12°C° 0 mm 2 mps 702 mmHg 68%
    21:00 +12°C° 0 mm 2 mps 702 mmHg 70%
    22:00 +11°C° 0 mm 1 mps 702 mmHg 72%
    23:00 +11°C° 0 mm 1 mps 702 mmHg 74%

    27 March, Wednesday

    Time Temperature Precipitation Wind Pressure Humidity
    00:00 +10°C° 0 mm 1 mps 702 mmHg 74%
    01:00 +10°C° 0 mm 1 mps 702 mmHg 74%
    02:00 +10°C° 0 mm 1 mps 702 mmHg 75%
    03:00 +10°C° 0 mm 1 mps 702 mmHg 76%
    04:00 +9°C° 0 mm 1 mps 702 mmHg 76%
    05:00 +9°C° 0 mm 1 mps 703 mmHg 77%
    06:00 +9°C° 0 mm 2 mps 703 mmHg 73%
    07:00 +10°C° 0 mm 2 mps 704 mmHg 69%
    08:00 +11°C° 0 mm 3 mps 704 mmHg 65%
    09:00 +12°C° 0 mm 3 mps 704 mmHg 61%
    10:00 +13°C° 0 mm 4 mps 704 mmHg 56%
    11:00 +14°C° 0 mm 4 mps 704 mmHg 51%
    12:00 +15°C° 0 mm 5 mps 704 mmHg 47%
    13:00 +16°C° 0 mm 5 mps 704 mmHg 43%
    14:00 +16°C° 0 mm 6 mps 704 mmHg 40%
    15:00 +16°C° 0 mm 5 mps 704 mmHg 39%
    16:00 +16°C° 0 mm 5 mps 704 mmHg 38%
    17:00 +15°C° 0 mm 4 mps 704 mmHg 37%
    18:00 +14°C° 0 mm 4 mps 704 mmHg 42%
    19:00 +13°C° 0 mm 3 mps 704 mmHg 46%
    20:00 +13°C° 0 mm 2 mps 704 mmHg 51%
    21:00 +13°C° 0 mm 2 mps 704 mmHg 53%
    22:00 +12°C° 0 mm 1 mps 704 mmHg 54%
    23:00 +12°C° 0 mm 1 mps 704 mmHg 56%
    Show more